Home > Weather > Cincinnati > Past weeks

Flag for USA Past Weather in Cincinnati, Ohio, USA — Yesterday and Last 2 Weeks

Now
62 °F

Clear.


Feels Like: 62 °F
Forecast: 56 / 81 °F
Wind: No wind

Location: Cincinnati Municipal Airport Lunken Field

Current Time: Jun 29, 2016 at 11:23:18 PM

Latest Report: Jun 29, 2016 at 10:53 PM


Visibility: 10 mi

Pressure: 30.06 "Hg

Humidity: 83%

Dew Point: 57 °F

Location of CincinnatiLocation

Past Weather in Cincinnati — Graph

°F

Cincinnati Temperature Yesterday

Maximum temperature yesterday: 84 °F (at 2:53 PM)
Minimum temperature yesterday: 65 °F (at 11:53 PM)
Average temperature yesterday: 75 °F

High & Low Weather Summary for the Past Weeks

 TemperatureHumidityPressure
High90 °F (Jun 26, 1:53 PM)100% (Jun 15, 1:53 AM)30.32 "Hg (Jun 15, 1:53 AM)
Low56 °F (Jun 29, 4:53 AM)32% (Jun 21, 3:53 PM)29.72 "Hg (Jun 16, 2:53 PM)
Average75 °F77%30.01 "Hg
* Reported Jun 14 9:53 PM — Jun 29 9:53 PM, Cincinnati, Weather by CustomWeather, © 2016

Note: Actual official high and low records may vary slightly from our data, if they occured in-between our weather recording intervals... More about our weather records

Advertising

Cincinnati Weather History for the Previous 24 Hours

Scroll right to see more
 ConditionsComfort  
Time TempWeatherWind HumidityBarometerVisibility
9:53 PM
Wed, Jun 29
63 °FSunny.No wind81%30.05 "Hg10 mi
8:53 PM70 °FPassing clouds.No wind66%30.04 "Hg10 mi
7:53 PM76 °FPassing clouds.3 mph43%30.03 "Hg10 mi
6:53 PM77 °FScattered clouds.3 mph44%30.03 "Hg10 mi
5:53 PM76 °FScattered clouds.5 mph45%30.04 "Hg10 mi
4:53 PM75 °FScattered clouds.3 mph48%30.06 "Hg10 mi
3:53 PM76 °FPartly sunny.6 mph47%30.07 "Hg10 mi
2:53 PM74 °FPartly sunny.6 mph48%30.08 "Hg10 mi
1:53 PM75 °FPartly sunny.6 mph54%30.09 "Hg10 mi
12:53 PM74 °FPartly sunny.6 mph56%30.09 "Hg10 mi
11:53 AM70 °FPartly sunny.5 mph66%30.09 "Hg10 mi
10:53 AM68 °FBroken clouds.No wind70%30.10 "Hg10 mi
9:53 AM67 °FBroken clouds.3 mph76%30.10 "Hg10 mi
8:53 AM64 °FPartly sunny.3 mph81%30.09 "Hg10 mi
7:53 AM62 °FScattered clouds.6 mph83%30.08 "Hg10 mi
6:53 AM56 °FPassing clouds.No wind97%30.08 "Hg10 mi
5:53 AM57 °FClear.No wind90%30.08 "Hg10 mi
4:53 AM56 °FClear.3 mph97%30.07 "Hg10 mi
3:53 AM59 °FClear.3 mph87%30.06 "Hg10 mi
2:53 AM61 °FClear.6 mph78%30.06 "Hg10 mi
1:53 AM60 °FClear.3 mph80%30.06 "Hg10 mi
12:53 AM63 °FClear.7 mph73%30.06 "Hg10 mi
11:53 PM
Tue, Jun 28
65 °FClear.12 mph70%30.06 "Hg10 mi
Weather by CustomWeather, © 2016

See weather overviewHow to use our weather pages